sat.trackr.live / text

‹ back to catalog

STARLINK-31066

NORAD 58676 · 2023-211K

PAYLOAD ACTIVE UNKNOWN

§ Identity

Operator
Country
US
Launch date
2023-12-29
Launch site
AFETR
Launch vehicle
Mass (kg)
RCS (m²)

Purposes: comms

External: N2YO · Heavens-Above · Gunter

§ Orbital elements

Epoch: 2026-05-25T01:54:01.031040Z

Period
94.27 min
Inclination
43.0022°
Eccentricity
0.0001724
Mean motion
15.27571586 rev/d
Perigee alt
481.9 km
Apogee alt
484.3 km
Semi-major
6,861.2 km
B*
-5.6956e-5
RAAN
159.6491°
Arg perigee
286.3331°
Mean anomaly
73.7331°
Rev number
13,371

§ Raw data

STARLINK-310661 58676U 23211K   26145.07917860 -.00001829  00000+0 -56956-4 0  99932 58676  43.0022 159.6491 0001724 286.3331  73.7331 15.27571586133716

JSON: /api/v1/satellites/58676 · /tle

For live sub-satellite position, see the globe view (requires WebGL).

§ Visibility from observer

Set your observer location to see the next 7 days of passes ≥ 10°. The values pass through the URL so the page stays shareable.

No JS? Fill the form by hand. The geolocation button needs JavaScript.